This is the latest recevied weather packets stored in our database for station/object N7NMS-13. If no packets are shown the sender has not sent any weather packets the latest 10 day(s).
| Time | Temp. | Humidity | Pressure | Rain* | Wind** | Luminosity | Snow |
|---|---|---|---|---|---|---|---|
| 1777860612 | 9.44° C | 60% | - | 0 mm | - | - | - |
| 1777860012 | 9.44° C | 58% | - | 0 mm | - | - | - |
| 1777859412 | 10° C | 58% | - | 0 mm | - | - | - |
| 1777858782 | 10° C | 57% | - | 0 mm | - | - | - |
| 1777858182 | 10.56° C | 55% | - | 0 mm | - | - | - |
| 1777857552 | 10.56° C | 51% | - | 0 mm | - | - | - |
| 1777856952 | 11.11° C | 51% | - | 0 mm | - | - | - |
| 1777856322 | 10.56° C | 50% | - | 0 mm | - | - | - |
| 1777855692 | 10.56° C | 52% | - | 0 mm | - | - | - |
| 1777855062 | 11.67° C | 52% | - | 0 mm | - | - | - |
| 1777854432 | 12.22° C | 46% | - | 0 mm | - | - | - |
| 1777853802 | 12.22° C | 45% | - | 0 mm | - | - | - |
| 1777853172 | 12.78° C | 44% | - | 0 mm | - | - | - |
| 1777852572 | 12.78° C | 43% | - | 0 mm | - | - | - |
| 1777851942 | 12.78° C | 42% | - | 0 mm | - | - | - |
| 1777851312 | 13.89° C | 42% | - | 0 mm | - | - | - |
| 1777850712 | 13.33° C | 40% | - | 0 mm | - | - | - |
| 1777850112 | 13.89° C | 40% | - | 0 mm | - | - | - |
| 1777849512 | 13.89° C | 39% | - | 0 mm | - | - | - |
| 1777848912 | 15° C | 40% | - | 0 mm | - | - | - |
| 1777848282 | 14.44° C | 38% | - | 0 mm | - | - | - |
| 1777847652 | 13.89° C | 38% | - | 0 mm | - | - | - |
| 1777847052 | 15° C | 37% | - | 0 mm | - | - | - |
| 1777846452 | 15.56° C | 38% | - | 0 mm | - | - | - |
| 1777845852 | 15.56° C | 36% | - | 0 mm | - | - | - |
* Rain latest hour (hover to see other rain measurements)
** Current wind speed in m/s (hover to see current wind gust speed)